date,time,DOY,Ta_1_1_1,RH_1_1_1,LWin_1_1_1,LWout_1_1_1,SWin_1_1_1,SWout_1_1_1,PPFD_1_1_1,SWC_1_1_1,Ts_1_1_1
[yyyy-mm-dd],[HH:MM],[ddd.ddd],[K],[%],[W+1m-2],[W+1m-2],[W+1m-2],[W+1m-2],[µmol+1m-2s-1],[m+3m-3],[K]
2013-06-17,00:30,168.020,285.47199999999998,95.432999999999993,-6.0613333333333337,-3.2979999999999996,0.64666666666666683,-1.5933333333333335,2.03333333333333352E-002,-9999.0,273.15999999999991
2013-06-17,01:00,168.041,285.38033333333340,96.069999999999993,-6.9213333333333331,-3.6929999999999992,0.14266666666666669,-1.6100000000000003,1.80000000000000021E-002,-9999.0,273.15999999999991
2013-06-17,01:30,168.062,285.59599999999995,93.661333333333317,-7.3853333333333344,-6.9956666666666676,0.45366666666666666,-2.2440000000000002,2.20000000000000057E-002,-9999.0,273.15999999999991
2013-06-17,02:00,168.083,285.75299999999999,92.382666666666651,-8.1759999999999984,-6.9840000000000000,0.55299999999999983,-1.7413333333333330,2.43333333333333388E-002,-9999.0,273.15999999999991
2013-06-17,02:30,168.104,285.77266666666668,92.655333333333346,-8.4354545454545420,-7.6656666666666666,-6.70000000000000040E-002,-1.6299999999999999,1.43333333333333351E-002,-9999.0,273.15999999999991
2013-06-17,03:00,168.124,284.72666666666669,98.421333333333322,-6.3443333333333340,-4.9120689655172418,-0.41833333333333328,-1.1673333333333331,2.16666666666666709E-002,-9999.0,273.15999999999991
2013-06-17,03:30,168.145,284.29833333333335,99.495333333333306,-5.3383333333333329,-2.3536666666666664,-0.38833333333333342,-0.33300000000000013,3.70000000000000190E-002,-9999.0,273.15999999999991
2013-06-17,04:00,168.166,284.14400000000001,99.894761904761921,-6.1970000000000001,-2.4469999999999996,-0.40366666666666667,3.66666666666667007E-003,0.67399999999999993,-9999.0,273.15999999999991
2013-06-17,04:30,168.187,284.06766666666675,99.996000000000009,-5.7676666666666669,-2.2813333333333330,0.67433333333333334,4.4990000000000006,8.0953333333333344,-9999.0,273.15999999999991
2013-06-17,05:00,168.208,284.05533333333341,99.993846153846164,-5.5076666666666672,-2.3823333333333339,1.8883333333333332,12.094666666666665,25.984666666666673,-9999.0,273.15999999999991
2013-06-17,05:30,168.229,284.08999999999997,100.00000000000000,-6.0076666666666663,-3.9273684210526318,5.2156666666666682,33.984999999999999,72.594333333333324,-9999.0,273.15999999999991
2013-06-17,06:00,168.249,284.07566666666668,100.00000000000000,-7.3599999999999977,-9999.0,11.112666666666668,77.055333333333323,176.65233333333339,-9999.0,273.15999999999991
2013-06-17,06:30,168.270,284.49933333333331,100.00000000000000,-7.3808333333333316,-9999.0,42.727000000000004,248.67900000000000,502.97866666666658,-9999.0,273.15999999999991
2013-06-17,07:00,168.291,284.98533333333336,100.00000000000000,-9.3674999999999997,-9999.0,27.842333333333332,168.04566666666659,347.43433333333337,-9999.0,273.15999999999991
2013-06-17,07:30,168.312,285.23933333333332,99.737692307692299,-8.9096666666666682,-9999.0,32.744999999999997,206.32800000000000,425.99366666666663,-9999.0,273.15999999999991
2013-06-17,08:00,168.333,286.51333333333338,93.042333333333318,-8.0435714285714290,-9999.0,67.250333333333344,419.40666666666664,836.44733333333352,-9999.0,273.15999999999991
2013-06-17,08:30,168.354,286.58133333333336,89.050333333333342,-9.6710526315789505,-9999.0,52.958333333333336,324.01466666666676,655.03466666666668,-9999.0,273.15999999999991
2013-06-17,09:00,168.374,286.64433333333329,88.511333333333340,-8.9427777777777795,-9999.0,51.611333333333349,317.78766666666672,651.71566666666661,-9999.0,273.15999999999991
2013-06-17,09:30,168.395,287.16233333333338,86.173000000000002,-8.5862499999999979,-9999.0,77.522999999999996,473.47066666666666,953.50099999999986,-9999.0,273.15999999999991
2013-06-17,10:00,168.416,287.15733333333333,86.928333333333327,-7.3772727272727288,-9999.0,97.056333333333356,597.20299999999986,1201.3666666666663,-9999.0,273.15999999999991
2013-06-17,10:30,168.437,287.80066666666670,80.056666666666672,-7.5510526315789477,-9999.0,113.37599999999999,696.41166666666675,1414.9593333333332,-9999.0,273.15999999999991
2013-06-17,11:00,168.458,287.56100000000004,79.589999999999989,-8.6829999999999998,-9999.0,60.536666666666655,373.31000000000000,778.21866666666654,-9999.0,273.15999999999991
2013-06-17,11:30,168.479,287.02966666666669,82.970999999999989,-8.3076666666666679,-9999.0,43.416000000000018,260.72766666666672,545.33299999999997,-9999.0,273.15999999999991
2013-06-17,12:00,168.499,287.36866666666663,81.286666666666676,-6.0233333333333325,-9999.0,88.706333333333333,543.56366666666679,1116.0813333333331,-9999.0,273.15999999999991
2013-06-17,12:30,168.520,287.73599999999999,80.185000000000016,-6.7860000000000005,-9999.0,110.99299999999998,680.08766666666691,1384.8870000000002,-9999.0,273.15999999999991
2013-06-17,13:00,168.541,287.78433333333334,81.915999999999983,-3.5923333333333334,-9999.0,166.42533333333333,1035.5719999999999,2098.8079999999995,-9999.0,273.15999999999991
2013-06-17,13:30,168.562,287.46133333333330,82.710999999999999,-4.1521428571428567,-9999.0,124.33799999999999,771.45766666666680,1582.5876666666666,-9999.0,273.15999999999991
2013-06-17,14:00,168.583,287.00699999999995,84.956000000000003,-4.9163333333333332,-9999.0,114.57633333333335,692.74766666666676,1408.6613333333330,-9999.0,273.15999999999991
2013-06-17,14:30,168.604,286.52066666666661,86.824666666666673,-6.2199999999999998,-9999.0,91.566000000000003,537.00400000000013,1070.9853333333335,-9999.0,273.15999999999991
2013-06-17,15:00,168.624,286.70366666666661,85.251000000000019,-4.6740000000000013,-9999.0,115.11200000000004,663.67233333333320,1339.2433333333329,-9999.0,273.15999999999991
2013-06-17,15:30,168.645,286.77666666666664,84.693999999999988,-6.9969999999999999,-9999.0,63.836333333333350,375.74766666666676,755.41199999999992,-9999.0,273.15999999999991
2013-06-17,16:00,168.666,286.54533333333336,84.930000000000007,-6.5579999999999989,-9999.0,51.646666666666668,301.15433333333334,601.54033333333348,-9999.0,273.15999999999991
2013-06-17,16:30,168.687,286.35933333333338,84.293666666666681,-6.9383333333333326,-9999.0,35.282999999999994,206.63066666666671,414.53433333333328,-9999.0,273.15999999999991
2013-06-17,17:00,168.708,286.50833333333338,82.196666666666673,-6.7283333333333335,-9999.0,36.678333333333335,211.14466666666667,422.82400000000001,-9999.0,273.15999999999991
2013-06-17,17:30,168.729,286.45233333333334,81.875000000000014,-7.3253333333333339,-9999.0,22.896666666666661,137.96566666666669,282.66166666666663,-9999.0,273.15999999999991
2013-06-17,18:00,168.749,286.60933333333338,79.734999999999999,-7.3726666666666665,-9999.0,19.449333333333339,114.24800000000002,237.47899999999996,-9999.0,273.15999999999991
2013-06-17,18:30,168.770,286.85566666666659,78.615666666666669,-7.7423333333333337,-9999.0,41.468999999999987,180.08633333333333,328.07200000000012,-9999.0,273.15999999999991
2013-06-17,19:00,168.791,286.08666666666664,81.831333333333333,-8.3256666666666703,-9999.0,25.589666666666666,103.61966666666666,202.46100000000004,-9999.0,273.15999999999991
2013-06-17,19:30,168.812,285.25000000000000,82.368333333333339,-6.7723333333333340,-9999.0,9.4260000000000002,28.638666666666666,66.543666666666667,-9999.0,273.15999999999991
2013-06-17,20:00,168.833,284.13266666666669,69.623666666666665,-8.4496666666666673,-9999.0,4.6363333333333339,10.533333333333333,24.164000000000005,-9999.0,273.15999999999991
2013-06-17,20:30,168.854,283.04699999999991,64.053333333333342,-8.8776666666666681,-9999.0,0.40499999999999997,-4.0089999999999995,1.4989999999999994,-9999.0,273.15999999999991
2013-06-17,21:00,168.874,282.39699999999999,62.627666666666649,-9.2430000000000003,-9999.0,0.43833333333333324,-4.8156666666666670,3.86666666666666894E-002,-9999.0,273.15999999999991
2013-06-17,21:30,168.895,281.93000000000001,66.048666666666676,-9999.0,-9999.0,0.46333333333333326,-5.1949999999999994,1.63333333333333386E-002,-9999.0,273.15999999999991
2013-06-17,22:00,168.916,281.51766666666668,70.565000000000012,-9999.0,-9999.0,0.33099999999999991,-5.0106666666666673,1.76666666666666708E-002,-9999.0,273.15999999999991
2013-06-17,22:30,168.937,281.20900000000006,72.662000000000020,-9999.0,-9999.0,0.37700000000000000,-5.1583333333333323,1.66666666666666699E-002,-9999.0,273.15999999999991
2013-06-17,23:00,168.958,280.80433333333332,71.551333333333318,-9999.0,-9999.0,0.37733333333333335,-5.2513333333333332,2.03333333333333387E-002,-9999.0,273.15999999999991
2013-06-17,23:30,168.979,281.09100000000007,65.269333333333336,-9999.0,-9999.0,0.79866666666666675,-4.7470000000000008,2.06666666666666735E-002,-9999.0,273.15999999999991
2013-06-18,00:00,169.000,280.32733333333340,70.530000000000001,-9999.0,-9999.0,0.12466666666666669,-5.2513333333333332,1.46666666666666664E-002,-9999.0,273.15999999999991
